Santiago de Cuba, Cuba

4:11 AM CST on January 20, 2018 (GMT -0500)
Antonio Maceo International

Weather History for MUCU - January, 2018

Change the Weather History Date:

Saturday, January 13, 2018

  Actual Average Record
Temperature  
Mean Temperature 76 °F -  
Max Temperature 83 °F 80 °F 89 °F (2012)
Min Temperature 68 °F 67 °F 57 °F (2014)
Cooling Degree Days 10    
Growing Degree Days 26 (Base 50)    
Moisture  
Dew Point 66 °F    
Average Humidity 70    
Maximum Humidity 83    
Minimum Humidity 45    
Precipitation  
Precipitation 0.00 in - - ()
Sea Level Pressure  
Sea Level Pressure 30.02 in    
Wind  
Wind Speed 4 mph ()    
Max Wind Speed 7 mph    
Max Gust Speed -    
Visibility 5.7 miles    
Events      
Averages and records for this station are not official NWS values.
T = Trace of Precipitation, MM = Missing Value Source: Averaged Metar Reports

Daily Weather History Graph

Daily Weather History Graph

Search for Another Location

Airport or City:

Trip Planner

Search our weather history database for the weather conditions in past years. The results will help you decide how hot, cold, wet, or windy it might be!

Date:

Astronomy

Jan. 13, 2018 Rise Set
Actual Time 6:41 AM CST 5:43 PM CST
Civil Twilight 6:17 AM CST 6:07 PM CST
Nautical Twilight 5:50 AM CST 6:34 PM CST
Astronomical Twilight 5:23 AM CST 7:00 PM CST
Moon 3:47 AM CST (1/13) 3:13 PM CST (1/13)
Length of Visible Light 11h 49m
Length of Day
11h 02m
Waning Crescent, 10% of the Moon is Illuminated
Jan 13
Waning Crescent
Jan 16
New
Jan 24
First Quarter
Jan 31
Full
Feb 7
Last Quarter

Hourly Weather History & Observations

Time (CST) Temp. Heat Index Dew Point Humidity Pressure Visibility Wind Dir Wind Speed Gust Speed Precip Events Conditions
12:50 AM 71.6 °F - 66.2 °F 83% 30.01 in 5.6 mi North 4.6 mph - N/A   Partly Cloudy
1:51 AM 71.6 °F - 66.2 °F 83% 30.01 in 5.6 mi NNE 3.5 mph - N/A   Partly Cloudy
2:51 AM 69.8 °F - 64.4 °F 83% 29.98 in 5.6 mi NE 4.6 mph - N/A   Partly Cloudy
3:50 AM 69.8 °F - 64.4 °F 83% 29.98 in 5.6 mi North 5.8 mph - N/A   Partly Cloudy
4:00 AM 69 °F - 64 °F 79% 30.00 in 6 mi North 4.5 mph - -   Scattered Clouds
4:51 AM 68.0 °F - 62.6 °F 83% 30.01 in 5.6 mi NNE 5.8 mph - N/A   Partly Cloudy
5:50 AM 69.8 °F - 64.4 °F 83% 30.01 in 5.6 mi NNE 4.6 mph - N/A   Partly Cloudy
6:52 AM 69.8 °F - 64.4 °F 83% 30.04 in 5.6 mi North 5.8 mph - N/A   Partly Cloudy
7:00 AM 70 °F - 65 °F 78% 30.04 in 6 mi North 4.5 mph - -   Haze
7:50 AM 75.2 °F - 68.0 °F 78% 30.04 in 5.6 mi NNE 4.6 mph - N/A   Partly Cloudy
8:51 AM 78.8 °F - 68.0 °F 69% 30.06 in 5.6 mi North 4.6 mph - N/A   Partly Cloudy
9:51 AM 82.4 °F 85.4 °F 68.0 °F 62% 30.06 in 5.6 mi North 3.5 mph - N/A   Partly Cloudy
10:00 AM 83 °F - 67 °F 50% 30.08 in 6 mi North 4.5 mph - -   Haze
10:51 AM 82.4 °F 84.6 °F 66.2 °F 58% 30.06 in 5.6 mi North 4.6 mph - N/A   Scattered Clouds
11:51 AM 82.4 °F 85.4 °F 68.0 °F 62% 30.04 in 5.6 mi SSE 5.8 mph - N/A   Mostly Cloudy
12:51 PM 82.4 °F 83.9 °F 64.4 °F 54% 30.01 in 5.6 mi SSE 5.8 mph - N/A   Mostly Cloudy
1:00 PM 83 °F - 65 °F 45% 30.02 in 6 mi SSE 4.5 mph - -   Haze
1:50 PM 82.4 °F 84.6 °F 66.2 °F 58% 29.98 in 5.6 mi South 5.8 mph - N/A   Mostly Cloudy
2:52 PM 82.4 °F 84.6 °F 66.2 °F 58% 29.98 in 5.6 mi South 5.8 mph - N/A   Scattered Clouds
3:52 PM 82.4 °F 85.4 °F 68.0 °F 62% 29.98 in 5.6 mi South 6.9 mph - N/A   Scattered Clouds
4:52 PM 80.6 °F 83.2 °F 68.0 °F 65% 29.98 in 5.6 mi SSE 5.8 mph - N/A   Scattered Clouds
5:52 PM 78.8 °F - 68.0 °F 69% 30.01 in 5.6 mi Variable 2.3 mph - N/A   Scattered Clouds
6:50 PM 77.0 °F - 66.2 °F 69% 30.01 in 5.6 mi ENE 4.6 mph - N/A   Scattered Clouds
7:00 PM 76 °F - 66 °F 64% 30.03 in 6 mi ENE 4.5 mph - -   Haze
7:50 PM 75.2 °F - 66.2 °F 73% 30.04 in 5.6 mi North 5.8 mph - N/A   Scattered Clouds
8:50 PM 75.2 °F - 66.2 °F 73% 30.04 in 5.6 mi NNW 4.6 mph - N/A   Scattered Clouds
9:50 PM 75.2 °F - 66.2 °F 73% 30.06 in 5.6 mi NNW 4.6 mph - N/A   Scattered Clouds
10:00 PM 75 °F - 66 °F 68% 30.07 in 6 mi NNW 4.5 mph - -   Haze
10:50 PM 75.2 °F - 66.2 °F 73% 30.04 in 5.6 mi North 5.8 mph - N/A   Scattered Clouds
11:50 PM 75.2 °F - 66.2 °F 73% 30.06 in 5.6 mi North 5.8 mph - N/A   Scattered Clouds